Powrót do katalogu

COSMOS 2251 DEB

AktywnyLEO
NORAD 40233·DEBRIS·🇷🇺 Russia

Wystrzelony Jun 16, 1993 z Plesetsk Cosmodrome

Loading…

Następne Przeloty (najbliższe 24 godziny)

TLE

Starzejące sięSource: Space-Track

Epoka: Sep 12, 2026, 09:21 UTC

1 40233U 93036BVN 26255.38975154  .00002064  00000-0  42383-3 0  9990
2 40233  73.9379 298.0247 0047227 308.9767  50.7195 14.60651850631302

Śledź COSMOS 2251 DEB w czasie rzeczywistym z AllMySat

Download on the App Store